User: anonymous   Login
Location: Unspecified
(0.0000°N, 0.0000°E)
Time: 01:40:25
(UTC+00:00)
Language:

Explorer 11/Cluster Stage 4 - Orbit

View from above orbital plane
View from above orbital plane
View from above satellite
View from above satellite

Ground track
Ground track

The orbit data is extracted from the following two-line orbital elements,

1 00107U 61013A   17050.50250887  .00001134  00000-0  13372-3 0  9995
2 00107  28.7866 194.0328 0549559 160.1398 202.1477 14.08194651794461
Epoch (UTC): 19 February 2017 12:03:36
Eccentricity: 0.0549559
inclination: 28.7866°
perigee height: 467 km
apogee height: 1263 km
right ascension of ascending node: 194.0328°
argument of perigee: 160.1398°
revolutions per day: 14.08194651
mean anomaly at epoch: 202.1477°
orbit number at epoch: 79446

The dashed part of the orbit path shows where the satellite is in the earth's shadow,  

DLR